Tracking 29594 objects as of 20-Sep-2024
HD Live streaming from Space Station
objects crossing your sky now

STARLINK-3605

Track STARLINK-3605 now!
10-day predictions
STARLINK-3605 is classified as:


NORAD ID: 51805
Int'l Code: 2022-017AP
Perigee: 545.8 km
Apogee: 547.9 km
Inclination: 53.2 °
Period: 95.4 minutes
Semi major axis: 6917 km
RCS: Unknown
Launch date: February 25, 2022
Source: United States (US)
Launch site: AIR FORCE WESTERN TEST RANGE (AFWTR)
Your satellite tracking list
Your tracking list is empty




NASA's NSSDC Master Catalog

Two Line Element Set (TLE):
1 51805U 22017AP  24264.27320055  .00005509  00000-0  36386-3 0  9991
2 51805  53.2154 212.7714 0001556  99.1480 260.9688 15.08847869143411
Source of the keplerian elements: AFSPC